FENGYUN 1C DEB

Satellite information

Favourite Embed

Satellite Type and Status

DEBRISIN ORBIT

Key statistics

Satellite FENGYUN 1C DEB at a glance.

Uptime

9714

Days in orbit

Revolutions

≈ 14.0

Per day

Orbit

SSO

Sun Synchronous Orbit

Inclination

98.8

Latest

Satellite identification and parameters

Extended collection of information and parameters for FENGYUN 1C DEB.

Object identification

Identified? True

Debris? True

Object name: FENGYUN 1C DEB

International designator: 1999-025CTF

Object number (NORAD): 32161

Object ID (CCSDS): 32161

Country: PEOPLES REPUBLIC OF CHINA (PRC)

Current information (Y/N): Y

RCS size: SMALL

Orbital parameters

Period: 102.721 minutes

Inclination: 98.8305 deg

SMA: 7265.491 km

Apoapsis: 985.743 km

Periapsis: 788.968 km

RAAN: 87.2791 deg

Eccentricy: 0.01354176

Argument of periapsis: 291.8401 deg

Mean anomaly: 66.8408 deg

Mean motion: 14.01862269 rev/day

Mean motion (dot): 0.00001067 rev/day2

B* drag term: 0.00067399448 1/REarth

Two-line elements (TLE)

Creation date: Dec. 8, 2025, 6:20 p.m.

Reference frame: TEME

Reference center: EARTH

Epoch: Dec. 8, 2025, 12:16 p.m. UTC

TLE line 0: 0 FENGYUN 1C DEB

TLE line 1: 1 32161U 99025CTF 25342.51161902 .00001067 00000-0 67399-3 0 9990

TLE line 2: 2 32161 98.8305 87.2791 0135418 291.8401 66.8408 14.01862269633709

Live tracking on map

Real-time ground track for satellite FENGYUN 1C DEB.

In-orbit conjunctions

A list of the most updated potential collisions computed for object FENGYUN 1C DEB.

Target Orbit TCA Probability of collision Miss distance Type
CZ-6A DEB LEO 2025-01-19 10:55:13 0.0001125301 232.0 (m) DEBRIS
COSMOS 842 LEO 2025-01-18 16:45:15 0.0001233999 915.0 (m) PAYLOAD
FENGYUN 1C DEB SSO 2024-11-13 12:24:21 0.0001290538 403.0 (m) DEBRIS
METEOR 2-5 DEB LEO 2024-07-12 09:29:06 0.0001024538 178.0 (m) DEBRIS
COSMOS 2251 DEB LEO 2024-05-30 04:16:27 0.0001057494 141.0 (m) DEBRIS

Associated space launch

Chinese polar orbiting meteorological satellite

FENGYUN 1C DEB was lifted into orbit during the mission ‘Long March 4B | Feng Yun 1C’, on board a Long March 4B space rocket.

The launch took place on May 10, 1999, 1:33 a.m. from Launch Complex 7.

For more information about the launch, click the button.

Launch to space Long March 4B | Feng Yun 1C
Long March 4B | Feng Yun 1C

Agency: N/A

Status: Launch Successful

Launch date: May 10, 1999, 1:33 a.m. UTC

Rocket: Long March 4B

Launch pad: Launch Complex 7

Location: Taiyuan Satellite Launch Center, People's Republic of China

...

Latest news about this satellite

There are no fresh news available about this satellite. Check back as we update our databases every day.


Newsletter sign-up

Weekly statistics, charts and insights to help you stay on top of the space industry.